This demonstration page uses our WeatherBlox Daily Observations layout. Learn more.

Left ArrowRight Arrow

47.50024, -111.30081

Hourly Observations for May 22, 2021

Temp ( °F °C ) Dew Point ( °F °C ) Humidity (%) Winds ( mph kmh ) Pressure ( in mb ) Visibility ( mi km ) Precip ( " mm )
12:14 am 00:14 Cloudy with Light Snow 27 -2.8 26 -3.3 96 96 ENE 3 6 30.43 1030 2 2 0.01 0.25
12:32 am 00:32 Cloudy with Mist and Fog 27 -2.8 26 -3.3 96 96 ENE 3 6 30.42 1030 5 8 0.01 0.25
12:53 am 00:53 Cloudy 27 -2.8 25 -3.9 92 92 Calm 30.41 1030 7 11 0.01 0.25
1:19 am 01:19 Cloudy with Mist and Fog 27 -2.8 25 -3.9 92 92 Calm 30.43 1030 5 8 0.00 0.00
1:34 am 01:34 Cloudy with Light Snow 27 -2.8 25 -3.9 92 92 S 3 6 30.43 1030 3 5 0.00 0.00
1:53 am 01:53 Cloudy with Light Snow 27 -2.8 25 -3.9 92 92 Calm 30.41 1030 3 5 0.00 0.00
2:03 am 02:03 Cloudy with Mist and Fog 27 -2.8 25 -3.9 92 92 Calm 30.43 1030 6 10 0.00 0.00
2:53 am 02:53 Cloudy 27 -2.8 25 -3.9 92 92 SW 3 6 30.41 1030 10 16 0.00 0.00
3:13 am 03:13 Cloudy 27 -2.8 25 -3.9 92 92 SW 3 6 30.43 1030 10 16 0.00 0.00
3:53 am 03:53 Cloudy 27 -2.8 26 -3.3 96 96 Calm 30.41 1030 9 14 0.00 0.00
4:53 am 04:53 Cloudy 27 -2.8 25 -3.9 92 92 Calm 30.40 1030 10 16 0.00 0.00
5:46 am 05:46 Cloudy 27 -2.8 25 -3.9 92 92 NE 6 9 30.40 1029 7 11 0.00 0.00
5:53 am 05:53 Cloudy with Mist and Fog 27 -2.8 25 -3.9 92 92 NE 5 7 30.38 1029 6 10 0.00 0.00
6:00 am 06:00 Cloudy with Mist and Fog 27 -2.8 26 -3.3 96 96 NE 3 6 30.41 1030 6 10 0.00 0.00
6:28 am 06:28 Cloudy 28 -2.2 26 -3.3 92 92 VRB 3 6 30.42 1030 7 11 0.00 0.00
6:44 am 06:44 Cloudy 27 -2.8 26 -3.3 96 96 SSE 6 9 30.43 1030 10 16 0.00 0.00
6:53 am 06:53 Cloudy 27 -2.8 26 -3.3 96 96 SSE 5 7 30.42 1030 10 16 0.00 0.00
7:21 am 07:21 Cloudy 27 -2.8 25 -3.9 92 92 SE 3 6 30.44 1031 10 16 0.00 0.00
7:48 am 07:48 Cloudy 28 -2 25 -4 86 86 Calm 30.42 1030 10 16 0.00 0.00
7:53 am 07:53 Cloudy 28 -2.2 26 -3.3 92 92 Calm 30.42 1030 10 16 0.00 0.00
8:53 am 08:53 Cloudy 30 -1.1 26 -3.3 85 85 NNW 3 6 30.42 1030 10 16 0.00 0.00
9:35 am 09:35 Cloudy 31 -0.6 26 -3.3 82 82 Calm 30.41 1030 10 16 0.00 0.00
9:53 am 09:53 Cloudy 32 0 26 -3.3 79 79 Calm 30.43 1030 10 16 0.00 0.00
10:53 am 10:53 Cloudy 31 -0.6 26 -3.3 82 82 Calm 30.44 1031 10 16 0.00 0.00
11:53 am 11:53 Cloudy 34 1.1 26 -3.3 73 73 Calm 30.43 1031 10 16 0.00 0.00
12:53 pm 12:53 Cloudy 36 2.2 25 -3.9 64 64 NNE 3 6 30.42 1030 10 16 0.00 0.00
1:53 pm 13:53 Cloudy 36 2.2 26 -3.3 67 67 Calm 30.41 1030 10 16 0.00 0.00
2:53 pm 14:53 Cloudy 38 3.3 27 -2.8 65 65 VRB 3 6 30.39 1029 10 16 0.00 0.00
3:28 pm 15:28 Partly Cloudy 40 4.4 30 -1.1 68 68 Calm 30.31 1026 10 16 0.00 0.00
3:42 pm 15:42 Mostly Cloudy 40 4.4 29 -1.7 65 65 N 5 7 30.31 1026 10 16 0.00 0.00
3:53 pm 15:53 Cloudy 39 3.9 29 -1.7 67 67 VRB 3 6 30.37 1029 10 16 0.00 0.00
4:53 pm 16:53 Cloudy 39 3.9 28 -2.2 65 65 Calm 30.35 1028 10 16 0.00 0.00
5:53 pm 17:53 Cloudy 39 3.9 29 -1.7 67 67 ENE 5 7 30.35 1028 10 16 0.00 0.00
6:53 pm 18:53 Cloudy 39 3.9 30 -1.1 70 70 ENE 7 11 30.35 1028 10 16 0.00 0.00
7:53 pm 19:53 Cloudy 39 3.9 30 -1.1 70 70 E 5 7 30.35 1028 10 16 0.00 0.00
8:53 pm 20:53 Cloudy 38 3.3 31 -0.6 76 76 E 6 9 30.34 1027 10 16 0.00 0.00
9:53 pm 21:53 Cloudy with Light Rain 37 2.8 32 0 82 82 NE 7 11 30.31 1027 10 16 0.00 0.00
10:53 pm 22:53 Cloudy 37 2.8 33 0.6 86 86 ENE 6 9 30.31 1027 10 16 0.00 0.00
11:46 pm 23:46 Cloudy 37 2.8 33 0.6 86 86 NNE 6 9 30.25 1024 10 16 0.00 0.00
11:53 pm 23:53 Cloudy 37 2.8 32 0 82 82 NE 7 11 30.28 1025 10 16 0.00 0.00

Powered by AerisWeather